Погода в Ред Дире

Канада     52°15′35″N   113°48′49″W
темп.,
°C
ветер,
м/с
пор.,
м/с
влажн.,
%
обл.,
%
осадки,
мм/ч
давл.,
гПа
погр.,
м
27 октября, ср
ср2700:00+3ююз411505 0.0 997158
03:00+3юз39603 0.0 997145
06:00+4з364757 0.0 99896
09:00+4з31154100 0.0 1002261
12:00+9зсз611399 0.0 1004860
15:00+12зсз610270 0.0 10052053
18:00+8зсз354392 0.1 100854
21:00+5з245338 0.6 101255
28 октября, чт
чт2800:00+3з33525 0.6 101535
03:00+2з22555 0.0 101710
06:00+1зюз22595 0.0 101911
09:000ююз226257 0.0 101915
12:00+7ю584075 0.0 1016578
15:00+7ююв61035100 0.0 10131204
18:00+7юв51128100 0.0 1009414
21:00+5вюв3739100 0.0 1007202
29 октября, пт
пт2900:00+4с2243100 0.0 100541
03:00+3ссз4944100 0.0 1005295
06:00+2сз41197100 0.0 1008585
09:00+2сз41077100 0.0 1008474
12:00+4ссз6854100 0.0 1009644
15:00+4с6951100 0.0 10101160
18:00+3ссз4755100 0.0 1012618
21:00+2ссз41152100 0.1 1015801
30 октября, сб
сб3000:00+1ссз61043100 0.1 1018545
03:00−1сз41152100 0.0 1022379
06:00−3зсз41165100 0.0 1025280
09:00−3зсз412590 0.0 1026317
12:00+2сз710350 0.0 10251245
15:00+4сз813276 0.0 10242327
18:00+1ссз49385 0.0 1026254
21:00−3сз34520 0.0 102958
31 октября, вс
вс3100:00−4зсз34590 0.0 103062
03:00−5зсз33640 0.0 103144
06:00−6зсз34670 0.0 103181
09:00−6зсз38680 0.0 1032188
12:00−1ссз57475 0.0 1031763
15:000с574334 0.0 10301300
18:00−3ссв346737 0.0 103259
21:00−6ссв23795 0.0 103439